Location: Camaret
(48.2753°N, 4.5961°W)
Time: 04:23:00
(UTC+00:00)

Cosmos 883 Rocket - Pass Details

Date: 29 October 2020
Orbit: 951 x 995 km, 83.0° (Epoch: 01 December)

Event Time Altitude Azimuth Distance (km) Brightness Sun altitude
Rises 18:51:27 0° 173° (S) 3,635 7.4 -18.4°
Reaches altitude 10° 18:53:59 10° 169° (S) 2,687 6.7 -18.9°
Maximum altitude 18:59:58 57° 93° (E) 1,116 4.4 -19.8°
Drops below altitude 10° 19:05:57 10° 16° (NNE) 2,689 6.7 -20.8°
Sets 19:08:29 0° 13° (NNE) 3,637 7.4 -21.3°
